Regional Weather Roundup
Issued by NWS

Home | Current Version | Previous Version | Graphics & Text | Print | Product List | Glossary On
Versions: 1 2 3 4 5 6 7 8 9 10 11 12 13 14 15 16 17 18 19 20 21 22 23 24 25 26 27 28 29 30 31 32 33 34 35 36 37 38 39 40 41 42 43 44 45 46 47 48 49 50
000
ASUS43 KOAX 171402
RWRNE

WEATHER ROUNDUP FOR NEBRASKA
NATIONAL WEATHER SERVICE OMAHA NE
800 AM CST FRI NOV 17 2017

NOTES: SATELLITE DATA IS BEING USED TO AUGMENT CLOUD COVER ABOVE
       12000 FEET.
       "FAIR" INDICATES FEW OR NO CLOUDS BELOW 12,000 FEET WITH NO
       SIGNIFICANT WEATHER AND/OR OBSTRUCTIONS TO VISIBILITY.


NEZ001>004-019>022-054>056-171500-
NEBRASKA PANHANDLE

CITY           SKY/WX    TMP DP  RH WIND       PRES   REMARKS
SCOTTSBLUFF    CLOUDY    41  26  55 VRB5      29.71R
ALLIANCE       CLOUDY    29  26  89 N7        29.67R WCI  22
CHADRON        CLOUDY    38  30  73 CALM      29.70R
GORDON         CLOUDY    36  28  74 CALM      29.67R
KIMBALL        CLOUDY    36  28  74 SW10      29.65S WCI  28
SIDNEY         CLOUDY    34  27  75 W10       29.63S WCI  26
$$

NEZ057>060-069>072-079>082-171500-
SOUTHWEST NEBRASKA

CITY           SKY/WX    TMP DP  RH WIND       PRES   REMARKS
NORTH PLATTE   PTCLDY    38  33  82 W3        29.63R
LEXINGTON      FOG       36  34  95 CALM      29.62R VSB 1/2
MCCOOK         PTCLDY    40  34  79 W7        29.59S
OGALLALA       CLOUDY    41  31  67 NE9       29.64R
$$

NEZ005>010-023>029-035>040-094-171500-
NORTH CENTRAL NEBRASKA

CITY           SKY/WX    TMP DP  RH WIND       PRES   REMARKS
VALENTINE      PTCLDY    36  28  73 W3        29.65R
AINSWORTH      CLOUDY    37  31  81 NW6       29.63R WCI  32
BROKEN BOW     CLEAR     37  34  89 NW7       29.62R WCI  32
O`NEILL        MOCLDY    39  33  78 NW7       29.61R WCI  34
ORD            FOG       31  30  96 S5        29.60S VSB<1/4 WCI  26
THEDFORD       CLOUDY    34  29  84 W5        29.66R WCI  30
$$

NEZ041-046>049-061>064-073>077-083>087-171500-
SOUTH CENTRAL NEBRASKA

CITY           SKY/WX    TMP DP  RH WIND       PRES   REMARKS
GRAND ISLAND   CLOUDY    47  47 100 W3        29.60R FOG
AURORA         CLOUDY    52  49  90 SW6       29.59S
HASTINGS       CLOUDY    50  47  89 S9        29.59F
HEBRON         CLOUDY    57  53  85 S6        29.59F
HOLDREGE       CLOUDY    41  41 100 NW6       29.61R FOG
KEARNEY        FOG       46  45  96 W7        29.62R VSB 3/4
$$

NEZ011>018-030>034-042>045-171500-
NORTHEAST NEBRASKA

CITY           SKY/WX    TMP DP  RH WIND       PRES   REMARKS
NORFOLK        MOCLDY    46  44  93 SE6       29.58F
ALBION         CLOUDY    50  47  90 S5        29.60F
BLAIR          CLOUDY    52  46  80 S13       29.63F
COLUMBUS       CLOUDY    47  43  86 NE3       29.63R
FREMONT        CLOUDY    50  42  75 SE7       29.64S
TEKAMAH        CLOUDY    49  40  71 SE5       29.64S
WAYNE          CLOUDY    44  39  81 S9        29.60F
$$

NEZ050>053-065>068-078-088>093-171500-
SOUTHEAST NEBRASKA

CITY           SKY/WX    TMP DP  RH WIND       PRES   REMARKS
LINCOLN        CLOUDY    55  50  83 SE6       29.63F
OMAHA EPPLEY   CLOUDY    54  47  77 S14       29.64S
BEATRICE       CLOUDY    58  55  89 S10       29.61S FOG
FALLS CITY     CLOUDY    56  53  90 S14       29.66F
NEBRASKA CITY  CLOUDY    54  54  99 S14       29.64F
PLATTSMOUTH    CLOUDY    53  49  87 SE10      29.65S
$$

NEZ044-045-051>053-067-171500-
OMAHA AREA

CITY           SKY/WX    TMP DP  RH WIND       PRES   REMARKS
OMAHA EPPLEY   CLOUDY    54  47  77 S14       29.64S
BLAIR          CLOUDY    52  46  80 S13       29.63F
FREMONT        CLOUDY    50  42  75 SE7       29.64S
MILLARD        CLOUDY    53  47  78 SE10      29.64F
OFFUTT AFB     CLOUDY    54  48  81 SE13      29.64F
PLATTSMOUTH    CLOUDY    53  49  87 SE10      29.65S
WAHOO          CLOUDY    50  41  73 SE3       29.63S
$$




USA.gov is the U.S. government's official web portal to all federal, state and local government web resources and services.